Wind_Speed
35 46 45 44 45 43 38 34 33 22 30 29 31 36 40 38 35 32 30 27 25 23 21 19 18 16 15 14 13 13 14 15 16 16 16 17 17 16
41 42 46 46 44 45 46 43 37 31 26 23 23 25 29 37 36 34 32 30 27 25 22 21 19 18 16 16 14 15 16 16 16 17 17 18 17 17
42 40 43 47 46 47 49 47 44 34 30 23 21 20 24 29 35 35 35 33 29 27 25 23 21 19 17 17 16 17 18 16 17 17 17 18 19 20
44 47 46 46 45 48 50 49 53 43 37 32 27 22 24 24 29 33 36 33 31 29 27 24 22 20 18 17 17 18 18 17 17 18 19 20 20 20
41 44 50 51 50 52 54 51 53 49 47 38 32 26 25 25 27 30 32 33 32 30 27 26 24 21 19 18 19 20 18 18 18 20 20 22 21 21
42 45 47 54 52 53 54 53 51 52 49 46 40 30 28 25 27 28 31 34 33 32 29 28 24 21 19 20 21 20 19 18 20 21 22 22 22 22
40 43 48 50 58 51 53 58 57 51 49 48 40 35 30 29 27 29 32 30 32 31 30 28 24 22 21 21 22 21 20 20 21 23 23 22 23 22
39 40 42 50 51 56 55 56 63 57 49 49 49 41 34 28 29 30 31 32 31 31 31 28 25 22 22 23 22 20 21 21 22 24 22 22 21 24
32 36 41 46 48 54 55 57 58 47 47 50 49 45 37 31 31 31 32 31 32 29 25 28 24 22 22 22 20 21 23 21 22 23 21 20 23 24
32 33 39 41 44 53 51 42 42 42 44 41 46 44 36 33 34 28 29 31 31 26 23 22 22 20 20 20 20 21 23 22 22 21 19 21 23 25
30 28 36 40 43 46 43 46 46 45 36 34 35 29 24 25 26 27 30 30 30 29 25 22 20 18 18 20 23 22 23 22 19 18 21 21 23 25
23 22 24 25 21 26 33 30 35 40 38 35 31 29 32 26 23 22 24 29 30 26 24 21 18 16 17 21 21 21 20 16 18 22 21 22 23 24
33 25 29 25 28 24 23 23 24 27 28 28 28 27 27 25 27 27 26 25 26 23 17 16 15 16 20 19 18 19 18 20 21 21 21 21 22 23
32 20 26 22 18 27 30 28 27 28 28 28 28 29 29 31 30 28 28 26 24 20 16 15 17 17 18 22 22 21 18 18 21 21 21 19 20 23
28 29 24 15 21 28 28 28 30 29 26 29 32 33 31 31 30 29 28 25 21 16 14 14 17 18 23 23 20 20 20 20 21 18 18 22 23 25
21 25 29 26 28 29 25 27 28 30 33 36 37 35 34 33 31 28 22 18 16 18 19 19 16 21 21 19 20 19 18 17 19 20 23 24 23 25
12 17 24 26 26 29 30 32 30 31 34 36 34 34 31 26 19 17 20 22 20 19 16 16 19 18 17 18 20 18 18 19 18 19 23 28 26 26
9 14 19 22 26 29 31 31 30 30 31 29 30 28 22 22 23 21 20 17 16 15 16 16 15 16 17 17 16 15 15 17 16 19 23 28 31 27
9 15 20 24 26 28 30 28 28 29 32 33 29 26 24 21 21 20 18 17 16 16 15 15 14 15 15 18 16 17 14 15 19 20 23 27 32 32
12 16 20 22 22 24 24 23 25 25 24 24 25 23 22 21 20 18 17 15 16 16 15 15 14 14 15 15 17 18 19 20 20 23 25 27 30 32
13 15 16 18 18 17 18 18 21 26 23 23 21 20 19 18 17 16 16 16 15 15 14 13 14 15 15 17 18 19 18 20 22 25 27 30 34 36
11 10 11 11 12 14 18 24 22 20 20 19 18 17 16 15 17 17 16 15 15 13 13 13 14 15 17 18 18 20 21 20 19 21 23 25 28 31
7 5 7 9 11 14 18 19 17 17 16 16 17 15 14 17 17 15 14 14 13 13 14 15 15 15 15 16 18 21 22 22 23 26 26 24 28 32
Wind_Direction
243 240 240 233 235 228 225 220 213 203 218 237 237 241 235 233 233 234 237 237 237 238 240 243 252 262 271 278 281 286 296 301 302 300 305 304 305 307
243 238 240 237 233 234 226 222 219 232 234 244 240 248 241 234 233 233 236 236 237 238 241 244 249 257 266 274 281 290 299 303 298 298 301 299 301 302
244 238 233 238 230 230 228 226 226 226 234 216 228 240 239 238 234 231 232 236 235 237 240 244 248 255 264 271 281 294 299 296 292 295 295 297 299 300
245 246 248 235 227 230 229 226 230 223 225 228 222 233 240 237 234 229 232 232 236 237 241 245 248 254 262 272 284 291 289 289 291 295 294 296 298 299
246 245 248 244 239 226 236 226 225 224 228 234 231 229 233 234 229 225 232 232 234 238 240 243 247 253 262 273 283 285 284 284 291 291 293 297 301 297
251 247 247 238 243 237 229 224 223 227 230 226 235 230 222 227 226 227 226 228 230 236 238 243 246 252 261 272 279 279 279 284 290 290 294 298 297 296
259 255 249 247 246 243 231 233 225 226 226 225 227 223 219 215 229 231 229 233 230 235 237 242 246 250 259 269 274 274 278 285 286 290 295 292 292 294
263 254 253 250 250 243 239 233 234 233 225 226 226 226 226 229 230 234 231 225 224 234 235 238 239 247 263 269 269 274 280 282 286 289 288 287 290 295
264 260 255 250 246 236 230 226 227 224 225 240 227 227 232 234 241 234 233 233 230 232 235 234 239 253 262 262 271 275 277 282 282 284 285 286 293 294
261 263 255 250 247 237 227 223 225 224 229 236 234 232 239 237 238 242 237 225 227 224 222 221 239 254 256 265 273 274 277 279 278 277 282 290 295 297
263 259 249 244 244 234 224 222 223 227 220 228 223 228 232 237 233 229 222 224 219 219 220 231 245 255 260 268 272 273 276 277 270 278 290 294 297 297
236 229 252 237 240 236 222 224 220 216 212 212 217 224 219 220 219 225 234 225 217 213 222 233 245 248 256 264 262 268 273 264 270 286 292 295 295 297
232 238 241 235 225 231 226 223 224 226 221 217 211 212 208 211 214 218 216 218 214 221 224 241 241 247 246 258 273 271 272 277 279 285 290 293 294 297
237 235 235 241 232 222 219 217 228 223 213 210 209 205 209 211 211 207 204 207 215 225 239 240 244 242 255 264 266 273 274 275 279 286 290 288 292 297
241 230 235 253 245 225 220 219 217 214 214 209 206 207 206 202 197 197 203 208 223 237 247 230 242 250 254 257 265 270 280 283 288 292 293 295 301 303
237 235 240 255 252 226 221 218 214 212 208 207 203 201 196 193 195 201 211 219 233 231 229 240 244 251 255 261 266 273 282 285 290 297 297 298 301 303
235 225 230 229 221 211 209 212 212 206 206 203 198 190 188 190 205 217 230 234 228 226 232 240 244 250 258 265 271 281 284 287 294 298 298 303 307 309
231 219 213 210 211 208 205 202 207 207 203 200 189 189 204 226 216 223 227 220 225 228 233 238 246 255 262 267 275 282 284 294 296 300 303 305 309 313
221 217 213 207 204 204 203 200 197 194 186 186 202 216 204 219 222 214 213 216 221 232 239 245 252 259 269 276 286 293 296 300 302 304 307 308 310 316
225 221 216 214 213 213 211 212 206 201 199 198 197 204 212 211 205 206 212 220 227 235 244 251 257 264 268 274 285 294 303 305 309 310 312 309 309 317
222 223 224 219 216 218 212 206 194 182 191 198 205 205 204 201 203 212 220 225 231 241 248 260 268 270 273 280 283 296 298 309 313 314 316 315 316 320
223 231 228 223 216 208 195 184 194 203 204 203 200 196 193 200 214 218 220 226 234 247 260 261 267 270 275 283 291 295 301 308 308 306 306 312 313 301
222 217 214 207 201 194 197 197 207 204 199 193 188 188 199 212 215 218 223 232 245 258 262 268 272 276 282 286 290 297 304 312 317 314 309 317 320 319
Height
1481 1485 1489 1492 1496 1501 1503 1507 1511 1514 1513 1516 1518 1519 1522 1527 1530 1533 1536 1539 1541 1543 1544 1546 1546 1547 1547 1546 1546 1545 1543 1543 1542 1540 1539 1537 1535 1534
1475 1478 1480 1484 1488 1492 1497 1500 1506 1509 1508 1509 1510 1514 1516 1520 1524 1527 1529 1533 1536 1538 1540 1541 1542 1542 1542 1542 1542 1541 1540 1539 1538 1536 1535 1533 1531 1529
1469 1471 1473 1476 1479 1484 1488 1492 1495 1501 1505 1503 1504 1508 1511 1514 1517 1520 1522 1526 1530 1532 1534 1536 1537 1537 1537 1538 1537 1537 1536 1534 1533 1532 1531 1529 1528 1526
1461 1464 1466 1470 1471 1474 1479 1481 1486 1493 1498 1498 1497 1501 1505 1508 1511 1514 1516 1520 1523 1527 1529 1531 1531 1532 1533 1533 1532 1531 1530 1529 1529 1527 1527 1524 1523 1522
1452 1454 1457 1459 1462 1463 1467 1473 1476 1481 1487 1491 1492 1494 1498 1502 1505 1508 1510 1515 1517 1520 1523 1525 1525 1526 1528 1528 1527 1526 1525 1524 1523 1523 1521 1520 1518 1517
1441 1443 1446 1448 1449 1456 1454 1462 1465 1469 1476 1480 1486 1488 1490 1496 1499 1501 1504 1507 1511 1513 1517 1518 1520 1521 1522 1522 1521 1520 1520 1519 1518 1518 1516 1515 1513 1511
1429 1431 1433 1436 1438 1444 1444 1450 1454 1459 1464 1470 1478 1480 1483 1487 1491 1494 1498 1502 1505 1508 1509 1512 1514 1516 1516 1516 1515 1515 1514 1514 1513 1512 1511 1510 1507 1505
1417 1419 1422 1425 1428 1431 1434 1439 1442 1447 1454 1460 1467 1470 1476 1481 1485 1488 1491 1494 1499 1501 1504 1506 1507 1508 1510 1509 1510 1509 1509 1508 1507 1506 1505 1503 1501 1500
1409 1410 1413 1415 1418 1421 1425 1429 1432 1439 1447 1453 1455 1463 1468 1473 1479 1481 1484 1487 1489 1493 1498 1500 1502 1502 1503 1503 1503 1504 1505 1502 1501 1500 1499 1498 1496 1494
1401 1403 1404 1407 1409 1412 1417 1422 1427 1432 1438 1443 1450 1456 1462 1466 1470 1475 1477 1481 1484 1488 1492 1494 1496 1496 1497 1499 1498 1497 1499 1497 1496 1495 1493 1491 1490 1488
1395 1396 1399 1400 1402 1405 1410 1415 1421 1426 1430 1437 1443 1448 1454 1460 1464 1468 1470 1474 1479 1482 1486 1488 1490 1491 1493 1493 1491 1492 1492 1491 1489 1490 1488 1486 1484 1481
1390 1393 1396 1398 1400 1403 1405 1409 1414 1419 1424 1430 1436 1442 1448 1455 1458 1462 1466 1469 1473 1476 1481 1486 1486 1486 1488 1487 1486 1485 1486 1486 1485 1485 1483 1481 1479 1475
1386 1388 1392 1394 1397 1400 1404 1408 1412 1417 1420 1425 1430 1436 1442 1447 1452 1456 1460 1464 1469 1471 1477 1480 1479 1480 1483 1482 1481 1481 1480 1480 1480 1478 1477 1476 1474 1471
1382 1385 1389 1392 1394 1398 1401 1405 1410 1414 1417 1421 1426 1432 1438 1443 1447 1449 1455 1461 1465 1469 1471 1472 1474 1477 1478 1479 1477 1476 1476 1476 1475 1472 1471 1470 1468 1465
1379 1383 1386 1388 1391 1393 1397 1401 1405 1409 1413 1418 1423 1428 1433 1438 1442 1446 1453 1456 1459 1461 1464 1468 1471 1472 1474 1472 1471 1471 1471 1470 1469 1466 1464 1463 1461 1459
1375 1377 1381 1384 1386 1389 1391 1394 1398 1403 1407 1413 1417 1423 1429 1433 1437 1444 1449 1452 1455 1456 1460 1464 1466 1468 1467 1466 1467 1466 1465 1465 1465 1461 1457 1456 1455 1452
1371 1372 1375 1377 1380 1383 1385 1389 1394 1398 1403 1408 1414 1421 1427 1433 1438 1442 1445 1447 1450 1454 1456 1459 1462 1462 1461 1462 1462 1460 1461 1458 1456 1455 1453 1447 1448 1445
1370 1371 1373 1375 1377 1380 1382 1386 1392 1396 1402 1409 1416 1422 1427 1432 1436 1440 1442 1445 1449 1451 1454 1456 1458 1458 1457 1459 1456 1455 1454 1451 1451 1449 1446 1441 1437 1438
1370 1371 1374 1377 1379 1381 1383 1387 1391 1397 1403 1410 1415 1421 1425 1430 1433 1437 1440 1444 1446 1449 1451 1451 1453 1454 1453 1454 1453 1451 1449 1448 1446 1443 1440 1437 1432 1428
1371 1373 1375 1378 1380 1382 1386 1390 1394 1400 1405 1410 1415 1420 1423 1427 1431 1434 1438 1441 1443 1445 1447 1448 1449 1449 1450 1449 1448 1447 1445 1443 1440 1437 1434 1429 1426 1423
1372 1374 1376 1379 1381 1384 1388 1392 1396 1401 1406 1409 1413 1417 1422 1425 1430 1433 1435 1438 1440 1442 1444 1443 1444 1445 1444 1444 1443 1442 1441 1439 1436 1431 1428 1422 1417 1412
1375 1376 1377 1380 1383 1386 1389 1394 1399 1402 1405 1408 1411 1416 1420 1424 1428 1430 1432 1435 1437 1439 1440 1439 1440 1441 1439 1439 1437 1436 1435 1434 1432 1429 1425 1422 1415 1406
1375 1377 1379 1382 1384 1387 1391 1394 1398 1401 1403 1407 1411 1416 1419 1423 1426 1428 1429 1431 1434 1435 1436 1436 1437 1436 1435 1434 1433 1432 1430 1427 1424 1421 1418 1416 1412 1406